Location: Morrison Observatory
(41.7012°N, 86.2315°W)
Time: 23:41:51
(UTC-04:00)

Daily predictions for brighter satellites

Satellite Brightness Start Highest point End
(mag) Time Altitude Azimuth Time Altitude Azimuth Time Altitude Azimuth
Meteor 2-20 4.5 21:01:31 10° N 21:07:40 83° E 21:13:49 10° S
Cosmos 1354 Rocket 4.1 21:03:40 10° NNW 21:08:59 87° ENE 21:14:13 10° SSE
Resurs 1-3 3.6 21:04:41 10° SSE 21:09:04 77° ENE 21:13:27 10° N
Cosmos 2322 Rocket 2.2 21:04:41 10° SSW 21:10:17 82° ESE 21:15:56 10° NNE
Atlas Centaur 2 3.6 21:07:11 10° SW 21:12:32 29° SSE 21:18:53 10° ESE
Cosmos 220 Rocket 4.4 21:09:28 10° NNW 21:13:55 70° WSW 21:18:19 10° S
Cosmos 1825 2.1 21:13:23 10° N 21:17:12 72° E 21:20:59 10° SSE
Abrixas rocket 4.2 21:14:35 10° WNW 21:17:25 26° N 21:20:14 10° NE
H-2A R/B 3.5 21:14:02 10° S 21:17:51 55° W 21:21:38 10° NNW
Cosmos 2360 Rocket 2.7 21:13:00 10° S 21:18:06 37° ESE 21:23:16 10° NE
Cosmos 1980 Rocket 4.3 21:14:03 10° WSW 21:19:08 33° WNW 21:24:16 10° N
USA 234 3.9 21:13:01 10° E 21:19:11 46° NNE 21:25:22 10° NW
COSMOS 2428 4.1 21:17:05 10° SE 21:20:35 17° E 21:24:06 10° ENE
Cosmos 1655 Rocket 4.1 21:14:21 10° N 21:20:43 63° E 21:26:59 10° SSE
Intercosmos 25 Rocket 3.2 21:18:16 10° S 21:21:29 64° E 21:25:48 10° NNE
Meteor 1-29 3.8 21:19:59 10° NNE 21:23:07 31° E 21:26:12 10° SSE
Envisat 3.3 21:18:31 10° SE 21:23:23 49° ENE 21:28:16 10° N
Cosmos 1869 4.0 21:21:18 10° SSW 21:25:10 57° W 21:29:06 10° N
Lacrosse 4 Rocket 2.3 21:21:06 10° NW 21:25:19 51° WSW 21:29:36 10° S
CZ-4B DEB 3.5 21:22:38 10° SE 21:25:24 33° ENE 21:28:10 10° N
Cosmos 1408 2.6 21:22:12 10° N 21:25:53 83° W 21:29:31 10° S
Cosmos 1867 4.0 21:20:43 10° NNW 21:26:00 48° NE 21:30:53 12° SE
Helios 1B rocket 2.6 21:22:56 10° NNE 21:26:55 48° E 21:30:53 10° S
Cosmos 2242 Rocket 3.7 21:22:56 10° S 21:27:27 87° W 21:31:56 10° N
Milstar 3 4.2 21:20:55 10° WSW 21:28:15 28° SSW 21:33:52 10° SE
ATLAS 5 CENTAUR R/B 2.6 21:23:40 10° NNW 21:29:37 63° NE 21:35:40 12° SE
Cosmos 2279 Rocket 4.0 21:29:07 10° S 21:35:19 76° E 21:41:33 10° N
Cosmos 2322 4.0 21:30:23 10° S 21:35:45 44° ESE 21:41:09 10° NE
SL-16 R/B 2.9 21:35:28 10° SW 21:41:02 59° WNW 21:46:39 10° NNE
ERS-1 Rocket 3.6 21:42:02 15° SE 21:45:45 38° ENE 21:50:22 10° N
Cosmos 1428 Rocket 4.4 21:41:37 10° N 21:47:45 86° E 21:53:52 10° S
SeaSat 1 4.3 21:44:57 10° E 21:48:05 18° NE 21:51:18 10° N
Resurs 01 Rocket 3.4 21:46:08 10° SSW 21:50:08 33° W 21:54:10 10° NNW
NOSS 3-1 (C) 4.3 21:54:38 13° SSE 21:58:28 24° ESE 22:03:16 10° ENE
Cosmos 1844 Rocket 3.6 21:54:43 10° N 21:59:42 32° ENE 22:02:44 19° ESE
Cosmos 1908 Rocket 3.5 21:55:35 10° N 21:59:54 64° E 22:02:58 19° SSE
Cosmos 2333 Rocket 3.7 22:00:04 17° E 22:00:04 17° E 22:03:31 10° ENE
YAOGAN 6 2.8 21:58:12 23° SE 22:00:11 51° ENE 22:03:42 10° N
Cosmos 2278 Rocket 4.1 21:57:08 10° N 22:00:33 16° NE 22:03:38 11° E
SPOT 5 3.9 21:59:59 20° ESE 22:02:01 27° ENE 22:05:52 10° N
USA 229 DEB 3.6 21:57:30 10° SSW 22:04:14 68° ESE 22:11:08 10° NE
USA 229 3.6 21:57:36 10° SSW 22:04:21 68° ESE 22:11:14 10° NE
OAO 3 Rocket 4.4 22:01:22 10° WSW 22:05:34 29° SSW 22:07:40 21° SSE
Cosmos 1933 4.1 22:02:14 10° SSW 22:06:10 53° W 22:10:08 10° N
Sich 1 Rocket 3.5 22:01:50 10° N 22:06:20 76° E 22:09:37 19° SSE
CZ-4C R/B 4.1 22:00:36 10° NNW 22:06:24 27° NE 22:11:50 13° E
Cosmos 1782 Rocket 3.7 22:10:13 10° N 22:14:31 53° E 22:16:25 30° SE
Meteor 2-10 Rocket 3.8 22:09:01 10° S 22:14:51 83° W 22:20:39 10° N
NOSS 3-1 (A) 4.4 22:15:18 23° ESE 22:15:18 23° ESE 22:19:53 10° ENE
Cosmos 1777 Rocket 4.2 22:14:13 10° NNW 22:19:25 56° ENE 22:21:49 30° SE
Cosmos 2219 Rocket 2.9 22:20:01 28° SE 22:21:13 31° ESE 22:26:05 10° NE
Okean 1-7 3.1 22:21:00 28° SSE 22:23:06 57° E 22:27:26 10° NNE
USA 245 4.5 22:21:27 29° SE 22:23:46 45° ENE 22:28:18 10° N
USA 267 4.5 22:21:17 10° NE 22:27:21 42° NNW 22:33:25 10° W
Okean 2 Rocket 3.2 22:25:09 10° N 22:29:37 56° E 22:30:55 40° SE
Cosmos 1782 3.3 22:30:21 40° E 22:30:26 40° E 22:34:13 10° NNE
Cosmos 1633 4.1 22:36:54 10° NNE 22:39:16 23° ENE 22:39:16 23° ENE
Cosmos 2263 Rocket 4.0 22:37:24 10° NW 22:41:54 26° WSW 22:46:23 10° SSW
Terra 3.2 22:45:02 23° ENE 22:45:24 24° ENE 22:49:10 10° NNE
Meteor 1-27 Rocket 4.4 22:46:37 33° E 22:46:54 34° E 22:51:52 10° NNE
Cosmos 1703 Rocket 4.4 22:43:25 11° SSW 22:47:36 49° W 22:51:54 10° N
Abrixas rocket 3.7 22:51:52 10° NW 22:54:49 29° NNE 22:55:07 29° NNE
Atlas Centaur 2 3.5 22:55:03 10° WSW 23:01:17 34° S 23:02:01 33° S
MetOp-B 4.4 22:59:17 35° S 23:01:29 65° WSW 23:06:49 10° NNW
USA 234 3.5 22:59:28 37° SSE 23:02:03 61° SW 23:08:31 10° NW
Cosmos 2360 Rocket 3.9 22:57:01 10° WSW 23:02:06 33° WNW 23:07:13 10° N
Cosmos 2151 Rocket 3.6 22:59:34 10° N 23:03:58 63° ENE 23:03:58 63° ENE
COSMOS 2428 3.0 22:58:33 10° SSW 23:04:12 68° WNW 23:09:55 10° NNE
Meteor 1-10 Rocket 4.2 23:06:13 37° S 23:08:42 89° E 23:14:35 10° N
H-2A R/B 1.8 23:09:10 65° ESE 23:09:43 72° ENE 23:14:38 10° N
MOS 1-B Rocket 3.9 23:09:36 43° S 23:11:37 75° WSW 23:17:14 10° NNW
Meteor 1-11 Rocket 3.8 23:07:43 10° N 23:13:09 56° ENE 23:13:39 54° E
Cosmos 1980 3.8 23:13:33 52° E 23:13:33 52° E 23:18:43 10° NNE
ATLAS 5 CENTAUR R/B 4.1 23:09:07 10° WNW 23:14:03 25° WSW 23:17:15 17° SSW
Cosmos 1844 3.6 23:09:46 10° NNW 23:15:28 85° WSW 23:16:28 62° SSE
Cosmos 1606 3.2 23:17:05 58° NW 23:17:05 58° NW 23:20:23 10° N
NOSS 0 Rocket 3.8 23:16:17 56° SSE 23:17:15 64° ESE 23:23:20 10° NNE
Okean 1 Rocket 4.3 23:14:48 10° N 23:17:55 30° NE 23:17:55 30° NE
Cosmos 1674 Rocket 4.4 23:20:35 39° NE 23:20:35 39° NE 23:23:34 10° NNE
SL-16 R/B 4.0 23:22:16 17° ENE 23:22:16 17° ENE 23:24:02 10° NE
ARGOS 3.5 23:18:59 42° SSW 23:20:30 57° W 23:25:49 10° NNW
DMSP B5D2-2 4.1 23:18:04 10° NNE 23:23:06 62° E 23:23:06 62° E
Cosmos 1570 Rocket 4.0 23:22:48 53° SSW 23:24:03 80° WNW 23:29:23 10° NNE
SeaSat 1 2.3 23:24:45 73° SSW 23:25:03 77° WSW 23:30:01 10° NNW
H-2A R/B 2.5 23:31:01 57° NNE 23:31:01 57° NNE 23:34:37 10° N
Cosmos 1937 Rocket 4.3 23:27:06 10° N 23:31:47 37° ENE 23:31:47 37° ENE
Cosmos 2208 Rocket 4.2 23:33:33 54° SW 23:34:42 72° WNW 23:40:02 10° NNE
Cosmos 1536 4.3 23:30:54 10° N 23:33:20 31° NNE 23:33:20 31° NNE
SL-19 R/B 4.2 23:32:16 10° NNE 23:38:17 71° ESE 23:38:21 71° ESE
SPOT 5 4.1 23:39:13 30° WSW 23:39:59 32° W 23:44:07 10° NW
Cosmos 2237 Rocket 2.0 23:40:20 82° ESE 23:40:20 82° ESE 23:46:01 10° NNE
Cosmos 1553 Rocket 4.0 23:41:44 58° SSW 23:43:02 80° W 23:49:16 10° N
SL-08 R/B 4.4 23:37:07 10° N 23:43:17 80° W 23:44:04 68° SSW
Cosmos 1844 Rocket 3.6 23:38:31 10° NW 23:43:36 37° WSW 23:44:25 35° SW
Cosmos 2333 Rocket 2.4 23:41:58 47° SW 23:43:37 71° WNW 23:49:24 10° NNE
Cosmos 2278 Rocket 2.0 23:39:45 10° NNW 23:45:27 89° WSW 23:45:29 88° SSW
NOSS 3-1 (C) 3.9 23:42:59 10° SW 23:48:42 58° NW 23:55:08 10° NNE
Cosmos 2150 Rocket 4.4 23:44:08 10° NNW 23:49:08 55° NE 23:49:08 55° NE
Iridium 4 Rocket 4.0 23:47:06 10° N 23:49:54 42° N 23:49:54 42° N
Cosmos 1300 Rocket 4.4 23:49:19 10° NNW 23:52:33 48° NNW 23:52:33 48° NNW
ASTEX 1 3.8 23:54:58 60° WNW 23:54:58 60° WNW 23:59:37 10° NNW
